Kindakun Rocks, British Columbia

3:24 PM PDT on April 25, 2018 (GMT -0700)
Kindakun Rocks

Weather History for CWQS - November, 2013

Change the Weather History Date:

Monday, November 25, 2013

  Actual Average (CYZP) Record (CYZP)
Temperature  
Mean Temperature 52 °F -  
Max Temperature 57 °F 44 °F 50 °F (2002)
Min Temperature 46 °F 36 °F 24 °F (2006)
Degree Days  
Heating Degree Days 14    
Growing Degree Days 2 (Base 50)    
Moisture  
Dew Point 42 °F    
Average Humidity 72    
Maximum Humidity 90    
Minimum Humidity 15    
Precipitation  
Precipitation 0.00 in - - ()
Sea Level Pressure  
Sea Level Pressure 29.92 in    
Wind  
Wind Speed 22 mph ()    
Max Wind Speed 40 mph    
Max Gust Speed 53 mph    
Averages and records for this station are not official NWS values.
T = Trace of Precipitation, MM = Missing Value Source: Averaged Metar Reports

Daily Weather History Graph

Daily Weather History Graph

Search for Another Location

Airport or City:

Astronomy

Nov. 25, 2013 Rise Set
Actual Time 8:34 AM PST 4:41 PM PST
Civil Twilight 7:53 AM PST 5:22 PM PST
Nautical Twilight 7:10 AM PST 6:05 PM PST
Astronomical Twilight 6:28 AM PST 6:47 PM PST
Moon No Moon Rise 1:19 PM PST
Length of Visible Light 9h 28m
Length of Day
8h 07m
Waning Gibbous, 50% of the Moon is Illuminated
Nov 25
Waning Gibbous
Dec 2
New
Dec 9
First Quarter
Dec 17
Full
Dec 25
Last Quarter

Hourly Weather History & Observations

Time (PST) Temp. Dew Point Humidity Pressure Visibility Wind Dir Wind Speed Gust Speed Precip Events Conditions
12:00 AM 48.6 °F 43.7 °F 83% 29.97 in - South 19.6 mph - N/A   Unknown
1:00 AM 57 °F 22 °F 15% 29.96 in - SSE 20.7 mph - -  
1:00 AM 56.8 °F 22.3 °F 26% 29.96 in - SSE 20.7 mph 27.6 mph N/A   Unknown
2:00 AM 52.3 °F 30.6 °F 43% 29.93 in - ESE 12.7 mph 19.6 mph N/A   Unknown
3:00 AM 50.0 °F 40.1 °F 69% 29.94 in - South 16.1 mph - N/A   Unknown
4:00 AM 51 °F 36 °F 44% 29.91 in - SE 9.2 mph - -  
4:00 AM 51.4 °F 35.6 °F 55% 29.91 in - SE 9.2 mph - N/A   Unknown
5:00 AM 51.6 °F 35.4 °F 54% 29.89 in - SSE 13.8 mph - N/A   Unknown
6:00 AM 50.2 °F 39.6 °F 67% 29.88 in - South 12.7 mph - N/A   Unknown
7:00 AM 50 °F 39 °F 56% 29.86 in - SSE 21.9 mph - -  
7:00 AM 50.0 °F 39.0 °F 66% 29.86 in - SSE 21.9 mph - N/A   Unknown
8:00 AM 49.6 °F 42.3 °F 76% 29.87 in - South 32.2 mph 42.6 mph N/A   Unknown
9:00 AM 49.8 °F 43.2 °F 78% 29.86 in - South 34.5 mph 42.6 mph N/A   Unknown
10:00 AM 50 °F 43 °F 71% 29.87 in - South 39.1 mph - -  
10:00 AM 50.0 °F 43.3 °F 78% 29.87 in - South 39.1 mph 52.9 mph N/A   Unknown
11:00 AM 50.7 °F 44.1 °F 78% 29.92 in - South 40.3 mph 48.3 mph N/A   Unknown
12:00 PM 51.3 °F 45.0 °F 79% 29.91 in - South 36.8 mph 48.3 mph N/A   Unknown
1:00 PM 51 °F 45 °F 74% 29.91 in - South 40.3 mph - -  
1:00 PM 51.1 °F 45.3 °F 81% 29.91 in - South 40.3 mph 51.8 mph N/A   Unknown
2:00 PM 51.1 °F 45.0 °F 80% 29.91 in - South 35.7 mph 46.0 mph N/A   Unknown
3:00 PM 51.3 °F 45.1 °F 80% 29.91 in - South 35.7 mph 42.6 mph N/A   Unknown
4:00 PM 50 °F 46 °F 81% 29.94 in - South 31.1 mph - -  
4:00 PM 49.6 °F 46.0 °F 87% 29.94 in - South 31.1 mph 38.0 mph N/A   Unknown
5:00 PM 49.8 °F 46.4 °F 88% 29.94 in - South 28.8 mph 36.8 mph N/A   Unknown
6:00 PM 50.0 °F 46.2 °F 87% 29.95 in - South 20.7 mph - N/A   Unknown
7:00 PM 50 °F 47 °F 85% 29.95 in - South 32.2 mph - -  
7:00 PM 49.6 °F 46.9 °F 90% 29.95 in - South 32.2 mph 40.3 mph N/A   Unknown
8:00 PM 50.4 °F 46.2 °F 86% 29.94 in - South 23.0 mph 29.9 mph N/A   Unknown
9:00 PM 50.9 °F 47.5 °F 88% 29.95 in - South 29.9 mph 40.3 mph N/A   Unknown
10:00 PM 51 °F 48 °F 84% 29.96 in - South 32.2 mph - -  
10:00 PM 50.9 °F 47.7 °F 89% 29.96 in - South 32.2 mph 41.4 mph N/A   Unknown
11:00 PM 50.9 °F 47.8 °F 89% 29.97 in - South 23.0 mph 33.4 mph N/A   Unknown